Back to catalog

FENGYUN 1C DEB

AlivePO
NORAD 33691·DEBRIS·🇨🇳 China

Launched May 10, 1999 from Taiyuan Satellite Launch Center

Loading…

Next Passes (next 24 hours)

TLE

FreshSource: Space-Track

Epoch: Sep 12, 2026, 10:57 UTC

1 33691U 99025DGC 26255.45652429  .00002991  00000-0  12527-2 0  9994
2 33691  99.1501 253.9018 0065975   3.2316 356.9275 14.25651981943863

Track FENGYUN 1C DEB in real time with AllMySat

Download on the App Store